Skip Page Navigation
NASA JPL Caltech
NASA Logo - Jet Propulsion Laboratory + View the NASA Portal
+ Center for Near-Earth Object Studies
JPL Home Earth Solar System Stars & Galaxies Technology
JPL Solar System Dynamics
BODIES ORBITS EPHEMERIDES TOOLS PHYSICAL DATA DISCOVERY FAQ SITE MAP
JPL Small-Body Database Browser
Search: [ help ]  
10694 Lacerda (1981 EH21)
Classification: Outer Main-belt Asteroid          SPK-ID: 2010694
Ephemeris | Orbit Diagram | Orbital Elements | Mission Design | Physical Parameters | Discovery Circumstances | Close-Approach Data ]

[ show orbit diagram ]
Orbital Elements at Epoch 2459000.5 (2020-May-31.0) TDB
Reference: JPL 29 (heliocentric ecliptic J2000)
 Element Value Uncertainty (1-sigma)   Units 
e .03566026903739777 3.7373e-08  
a 3.208955544429569 2.1858e-08 au
q 3.094523326386161 1.1704e-07 au
i 22.08220161514869 5.5852e-06 deg
node 177.8800108995779 1.1555e-05 deg
peri 128.4220647082558 8.3634e-05 deg
M 170.5983966674345 8.3625e-05 deg
tp 2458005.515255033591
(2017-Sep-09.01525503)
0.00048599 TDB
period 2099.635841749285
5.75
2.1453e-05
5.874e-08
d
yr
n .171458303788561 1.7518e-09 deg/d
Q 3.323387762472977 2.2637e-08 au
  Orbit Determination Parameters
   # obs. used (total)      1407  
   data-arc span      14514 days (39.74 yr)  
   first obs. used      1981-02-09  
   last obs. used      2020-11-05  
   planetary ephem.      DE431  
   SB-pert. ephem.      SB431-N16  
   condition code      0  
   norm. resid. RMS      .48478  
   source      ORB  
   producer      Otto Matic  
   solution date      2020-Dec-18 02:43:21  

Additional Information
 Earth MOID = 2.11418 au 
 Jupiter MOID = 1.81212 au 
 T_jup = 3.076 
[ show covariance matrix ]

Ephemeris | Orbit Diagram | Orbital Elements | Mission Design | Physical Parameters | Discovery Circumstances | Close-Approach Data ]

Physical Parameter Table
Parameter Symbol Value Units Sigma Reference Notes
absolute magnitude H 13.2   n/a MPO458933  
diameter diameter 11.708 km 0.158 urn:nasa:pds:neowise_diameters_albedos::2.0[mainbelt] (http://adsabs.harvard.edu/abs/2011ApJ...741...68M)  
rotation period rot_per 7.188 h n/a LCDB (Rev. 2020-October); Warner et al., 2009 Result based on less than full coverage, so that the period may be wrong by 30 percent or so.
Published Reference List:
[Waszczak, A.; Chang, C.-K.; Ofeck, E.O.; Laher, F.; et al. (2015) Astron. J. 150, A75.]
[Pal, A.; Szakats, R.; Kiss, C.; Bodi, A.; et al. (2019) Ap. J. Supl. Ser. 247, id.26.]
geometric albedo albedo 0.089   0.006 urn:nasa:pds:neowise_diameters_albedos::2.0[mainbelt] (http://adsabs.harvard.edu/abs/2011ApJ...741...68M)  

10694 Lacerda           Discovered 1981 Mar. 2 by S. J. Bus at Siding Spring.
Pedro Lacerda (b. 1975) is a Lecturer at Queen's University Belfast whose work includes analyzing rotational lightcurves to infer physical properties of trans-Neptunian objects and other small solar system bodies.
NOTE: some special characters may not display properly (any characters within {} are an attempt to place the proper accent above a character)
Reference: MPC batch dated 2017-03-12Last Updated: 2017-04-19

[ show close-approach data ]
Ephemeris | Orbit Diagram | Orbital Elements | Mission Design | Physical Parameters | Discovery Circumstances | Close-Approach Data ]
ABOUT SSD CREDITS/AWARDS PRIVACY/COPYRIGHT GLOSSARY LINKS
FirstGov 2021-Jan-28 09:58 UT
(server date/time)  
NASA Home Page
Site Manager:   Ryan S. Park
Webmaster  Alan B. Chamberlin